Regional Weather Roundup
Issued by NWS

Home | Current Version | Previous Version | Graphics & Text | Print | Product List | Glossary On
Versions: 1 2 3 4 5 6 7 8 9 10 11 12 13 14 15 16 17 18 19 20 21 22 23 24 25 26 27
000
ASUS45 KPSR 151410
RWRAZ

ARIZONA HOURLY REGIONAL WEATHER ROUNDUP
NATIONAL WEATHER SERVICE PHOENIX AZ
700 AM MST SUN JAN 15 2017

NOTE: FAIR INDICATES FEW OR NO CLOUDS BELOW 12,000 FEET WITH NO
SIGNIFICANT WEATHER AND/OR OBSTRUCTIONS TO VISIBILITY.

AZZ001>003-036-151500-
NORTHWEST ARIZONA

CITY           SKY/WX    TMP DP  RH WIND       PRES   REMARKS
BULLHEAD CITY  CLOUDY    55  36  47 N20       29.97S
KINGMAN        CLOUDY    42  36  79 E8        29.98S
$$

AZZ004>008-015-016-018-151500-
NORTH CENTRAL ARIZONA

CITY           SKY/WX    TMP DP  RH WIND       PRES   REMARKS
GRAND CANYON   FOG       33  33 100 NW3       29.98R VSB 3/4
WILLIAMS       FOG       32  30  93 CALM      29.96S VSB 3/4
PRESCOTT       CLOUDY    36  36 100 W3        29.97R
FLAGSTAFF      CLOUDY    31  31 100 CALM      29.95S
PAYSON         PTCLDY    36  34  93 N3        29.96S
PAGE           CLOUDY    42  36  79 CALM      29.97S
$$

AZZ009>014-017-151500-
NORTHEAST ARIZONA

CITY           SKY/WX    TMP DP  RH WIND       PRES   REMARKS
WINSLOW        CLOUDY    39  38  96 NW10      29.95R WCI  32
SAINT JOHNS    CLOUDY    39  39 100 NW7       29.90S WCI  34
SHOW LOW       FOG       32  32 100 NW7       29.93S VSB 1/4 WCI  26
$$

AZZ023-151500-
GREATER PHOENIX AREA

CITY           SKY/WX    TMP DP  RH WIND       PRES   REMARKS
PHOENIX        MOCLDY    50  47  89 W5        29.93R
BUCKEYE          N/A     48  48 100 CALM      29.96S
GLENDALE       MOCLDY    52  52 100 SW8       29.95
LUKE AFB       MOCLDY    50 N/A N/A SW12      29.93S
DEER VALLEY    CLOUDY    50  50 100 S5        29.93R
SCOTTSDALE     PTCLDY    51  49  92 NW5       29.95R
MESA-FALCON    CLOUDY   N/A N/A N/A VRB6      29.91R
MESA-GATEWAY   MOCLDY    52  52 100 CALM      29.95R
CHANDLER       MOCLDY    54  52  94 SW6       29.95R
$$

AZZ027-028-151500-
SOUTHWEST MARICOPA COUNTY AND PINAL COUNTY

CITY           SKY/WX    TMP DP  RH WIND       PRES   REMARKS
CASA GRANDE    CLOUDY    52  47  83 W7        29.97R
$$

AZZ503-504-507>509-151500-
SOUTHEAST ARIZONA

CITY           SKY/WX    TMP DP  RH WIND       PRES   REMARKS
TUCSON         CLOUDY    50  46  86 SW5       29.97R
DAVIS-MONTHAN  CLOUDY    48  48 100 SW3       29.96R
RYAN FIELD     CLOUDY    48  45  87 SW13G23   29.97R
NOGALES        CLOUDY    41  38  89 S7        30.00R
SIERRA VISTA   CLOUDY    40  39  95 VRB6      29.96R
DOUGLAS        LGT RAIN  40  39  97 S7        29.97S
SAFFORD        LGT RAIN  47  46  97 NW7       29.89R
$$

AZZ020-021-025-026-031-151500-
SOUTHWEST ARIZONA

CITY           SKY/WX    TMP DP  RH WIND       PRES   REMARKS
YUMA           CLOUDY    54  47  77 S3        29.97R
$$

CAZ031-033-041-043-047-048-061-151500-
SOUTHERN CALIFORNIA

CITY           SKY/WX    TMP DP  RH WIND       PRES   REMARKS
DOWNTOWN L.A.  NOT AVBL
L.A. AIRPORT   CLOUDY    54  52  93 E5        30.02R
SAN DIEGO      MOCLDY    55  46  71 SE6       30.05S
BURBANK        PTCLDY    45  40  82 N5        30.02R
ONTARIO        CLEAR     47  42  83 CALM      30.02R
RIVERSIDE      CLEAR     40  40 100 NE6       30.03R
PALM SPRINGS   CLEAR     50  44  80 CALM      29.99R
EL CENTRO NAS  CLEAR     50  44  80 W10       29.98S
IMPERIAL       CLEAR     50  45  83 W7        29.96R
BLYTHE         CLOUDY    54  45  71 CALM      29.96S
NEEDLES        MOCLDY    53  38  56 NW9       29.98R
$$

NVZ020-UTZ003-151500-
SOUTHERN NEVADA-UTAH

CITY           SKY/WX    TMP DP  RH WIND       PRES   REMARKS
LAS VEGAS      PTCLDY    48  29  47 NE10      30.02R
SALT LAKE CITY CLOUDY    29  23  78 W6        30.16S WCI  23
$$

NMZ009-TXZ055-151500-
NEW MEXICO-WEST TEXAS

CITY           SKY/WX    TMP DP  RH WIND       PRES   REMARKS
ALBUQUERQUE    LGT RAIN  41  38  89 NE10      29.91F
EL PASO        TSTM      46  43  89 SW9       29.88R
$$


........................KEY........................
SKY/WX - SKY CONDITION/WEATHER
TMP    - TEMPERATURE IN FAHRENHEIT
DP     - DEW POINT IN FAHRENHEIT
RH     - RELATIVE HUMIDITY IN PERCENT
WIND   - DIRECTION AND SPEED IN MILES PER HOUR (MPH)
VRB    - VARIABLE WIND DIRECTION
PRES   - MEAN SEA LEVEL PRESSURE IN INCHES OF MERCURY
         F - FALLING PRESSURE   R - RISING PRESSURE
         S - STEADY PRESSURE
VSB    - VISIBILITY IN MILES
HX     - HEAT INDEX IN FAHRENHEIT
WCI    - WIND CHILL INDEX IN FAHRENHEIT
TC     - TEMPERATURE IN CELSIUS WHICH IS ALSO KNOWN AS
         TEMPERATURE IN CENTIGRADE
AFB    - AIR FORCE BASE
         LUKE AFB IS LUKE AIR FORCE BASE
         DAVIS-MONTHAN IS DAVIS-MONTHAN AIR FORCE BASE
NAS    - NAVAL AIR STATION
         EL CENTRO NAS IS EL CENTRO NAVAL AIR STATION
N/A    - NOT AVAILABLE





USA.gov is the U.S. government's official web portal to all federal, state and local government web resources and services.